Weather History for VTSB - June, 2013

Change the Weather History Date:

Friday, June 28, 2013

  Actual Average Record
Temperature  
Mean Temperature 85 °F -  
Max Temperature 96 °F 91 °F - ()
Min Temperature 74 °F 74 °F - ()
Cooling Degree Days 20    
Growing Degree Days 35 (Base 50)    
Moisture  
Dew Point 76 °F    
Average Humidity 76    
Maximum Humidity 100    
Minimum Humidity 47    
Precipitation  
Precipitation 0.00 in 0.19 in - ()
Sea Level Pressure  
Sea Level Pressure 29.79 in    
Wind  
Wind Speed 4 mph ()    
Max Wind Speed 12 mph    
Max Gust Speed -    
Visibility 4.3 miles    
Events      
T = Trace of Precipitation, MM = Missing Value Source: Averaged Metar Reports

Daily Weather History Graph

Daily Weather History Graph

Search for Another Location

Airport or City:

Trip Planner

Search our weather history database for the weather conditions in past years. The results will help you decide how hot, cold, wet, or windy it might be!

Date:

Astronomy

Jun. 28, 2013 Rise Set
Actual Time 6:07 AM ICT 6:46 PM ICT
Civil Twilight 5:44 AM ICT 7:09 PM ICT
Nautical Twilight 5:17 AM ICT 7:36 PM ICT
Astronomical Twilight 4:49 AM ICT 8:03 PM ICT
Moon 11:06 PM ICT (6/28) 10:38 AM ICT (6/28)
Length of Visible Light 13h 25m
Length of Day
12h 39m
Waning Gibbous, 71% of the Moon is Illuminated
Jun 28
Waning Gibbous
Jun 30
Last Quarter
Jul 8
New
Jul 16
First Quarter
Jul 23
Full

Hourly Weather History & Observations

Time (ICT) Temp. Heat Index Dew Point Humidity Pressure Visibility Wind Dir Wind Speed Gust Speed Precip Events Conditions
1:00 AM 77 °F - 74 °F 87% 29.81 in 4 mi Calm Calm - -   Mist
6:00 AM 75.2 °F - 75.2 °F 100% 29.80 in 2.5 mi WSW 4.6 mph - N/A   Partly Cloudy
7:00 AM 75 °F - 73 °F 92% 29.83 in 3 mi Calm Calm - -   Mist
7:00 AM 75.2 °F - 75.2 °F 100% 29.83 in 1.9 mi Calm Calm - N/A   Mostly Cloudy
8:00 AM 77.0 °F - 77.0 °F 100% 29.83 in 2.5 mi SW 4.6 mph - N/A   Mostly Cloudy
9:00 AM 82.4 °F 92.4 °F 78.8 °F 89% 29.83 in 3.7 mi South 5.8 mph - N/A   Scattered Clouds
10:00 AM 84.2 °F 96.1 °F 78.8 °F 84% 29.83 in 4.3 mi SW 5.8 mph - N/A   Scattered Clouds
11:00 AM 87.8 °F 99.7 °F 77.0 °F 70% 29.83 in 4.3 mi SW 8.1 mph - N/A   Scattered Clouds
12:00 PM 89.6 °F 99.8 °F 75.2 °F 62% 29.83 in 4.3 mi WSW 11.5 mph - N/A   Scattered Clouds
1:00 PM 93 °F - 75 °F 47% 29.80 in 6 mi West 4.6 mph - -   Partly Cloudy
1:00 PM 91.4 °F 105.1 °F 77.0 °F 63% 29.80 in 5.0 mi WSW 9.2 mph - N/A   Scattered Clouds
2:00 PM 93.2 °F 105.0 °F 75.2 °F 56% 29.77 in 5.0 mi West 10.4 mph - N/A   Scattered Clouds
3:00 PM 91.4 °F 102.5 °F 75.2 °F 59% 29.74 in 5.0 mi SW 10.4 mph - N/A   Scattered Clouds
4:00 PM 91.4 °F 102.5 °F 75.2 °F 59% 29.74 in 5.0 mi WSW 10.4 mph - N/A   Mostly Cloudy
6:00 PM 87.8 °F 97.6 °F 75.2 °F 66% 29.74 in 5.0 mi West 8.1 mph - N/A   Scattered Clouds
7:00 PM 87 °F - 76 °F 63% 29.75 in 6 mi Calm Calm - -   Scattered Clouds
7:00 PM 86.0 °F 96.9 °F 77.0 °F 74% 29.77 in 5.0 mi SW 4.6 mph - N/A   Mostly Cloudy
8:00 PM 82.4 °F 90.9 °F 77.0 °F 84% 29.77 in 5.0 mi SW 4.6 mph - N/A   Mostly Cloudy
9:00 PM 82.4 °F 90.9 °F 77.0 °F 84% 29.80 in 4.3 mi WSW 5.8 mph - N/A   Mostly Cloudy